This demonstration page uses our WeatherBlox Daily Observations layout. Learn more.

Left ArrowRight Arrow

Hourly Observations for February 23, 2022

Temp ( °F °C ) Dew Point ( °F °C ) Humidity (%) Winds ( mph kmh ) Pressure ( in mb ) Visibility ( mi km ) Precip ( " mm )
12:56 am 00:56 Partly Cloudy -3 -19.4 -11 -23.9 68 68 NNW 15 24 30.73 1041 10 16 0.00 0.00
1:56 am 01:56 Cloudy -3 -19.4 -11 -23.9 68 68 N 17 28 30.75 1041 10 16 0.00 0.00
2:56 am 02:56 Cloudy -3 -19.4 -11 -23.9 68 68 N 17 28 30.72 1040 10 16 0.00 0.00
3:56 am 03:56 Cloudy -3 -19.4 -11 -23.9 68 68 N 20 31 30.73 1041 10 16 0.00 0.00
4:56 am 04:56 Cloudy -3 -19.4 -11 -23.9 68 68 N 16 26 30.73 1041 10 16 0.00 0.00
5:56 am 05:56 Cloudy -3 -19.4 -11 -23.9 68 68 N 13 20 30.76 1042 10 16 0.00 0.00
6:56 am 06:56 Cloudy -3 -19.4 -11 -23.9 68 68 N 16 26 30.74 1041 10 16 0.00 0.00
7:56 am 07:56 Cloudy -2 -18.9 -11 -23.9 65 65 N 17 28 30.74 1041 10 16 0.00 0.00
8:56 am 08:56 Partly Cloudy 2 -16.7 -10 -23.3 57 57 N 14 22 30.75 1041 10 16 0.00 0.00
9:56 am 09:56 Mostly Cloudy 4 -15.6 -9 -22.8 54 54 N 14 22 30.75 1041 10 16 0.00 0.00
10:56 am 10:56 Sunny 7 -13.9 -9 -22.8 47 47 NE 12 19 30.74 1041 10 16 0.00 0.00
11:56 am 11:56 Sunny 10 -12.2 -8 -22.2 43 43 NE 9 15 30.72 1040 10 16 0.00 0.00
12:56 pm 12:56 Sunny 13 -10.6 -7 -21.7 40 40 NNE 13 20 30.67 1039 10 16 0.00 0.00
1:56 pm 13:56 Sunny 13 -10.6 -7 -21.7 40 40 ENE 9 15 30.61 1037 10 16 0.00 0.00
2:56 pm 14:56 Sunny 14 -10 -7 -21.7 38 38 NE 8 13 30.56 1035 10 16 0.00 0.00
3:56 pm 15:56 Sunny 14 -10 -6 -21.1 40 40 NE 13 20 30.56 1035 10 16 0.00 0.00
4:56 pm 16:56 Sunny 14 -10 -6 -21.1 40 40 NE 15 24 30.53 1034 10 16 0.00 0.00
5:56 pm 17:56 Sunny 10 -12.2 -7 -21.7 45 45 NE 12 19 30.55 1034 10 16 0.00 0.00
6:56 pm 18:56 Clear 7 -13.9 -9 -22.8 47 47 NE 9 15 30.57 1035 10 16 0.00 0.00
7:56 pm 19:56 Clear 4 -15.6 -9 -22.8 54 54 NE 10 17 30.58 1036 10 16 0.00 0.00
8:56 pm 20:56 Clear 2 -16.7 -9 -22.8 59 59 NE 9 15 30.57 1035 10 16 0.00 0.00
9:56 pm 21:56 Clear 0 -17.8 -9 -22.8 65 65 NE 9 15 30.58 1036 10 16 0.00 0.00
10:56 pm 22:56 Clear -1 -18.3 -10 -23.3 65 65 NNE 9 15 30.57 1035 10 16 0.00 0.00
11:56 pm 23:56 Clear -4 -20 -12 -24.4 68 68 NE 7 11 30.54 1034 10 16 0.00 0.00

Powered by AerisWeather